Location: ?????
(31.8092°N, 35.2590°E)
Time: 01:06:01
(UTC+00:00)

Cosmos 1725 Rocket - Pass Details

Date: 20 June 2021
Orbit: 962 x 990 km, 82.9° (Epoch: 04 August)

Event Time Altitude Azimuth Distance (km) Brightness Sun altitude
Rises 18:46:13 0° 3° (N) 3,651 7.7 -20.8°
Reaches altitude 10° 18:48:54 10° 11° (N) 2,703 6.8 -21.2°
Maximum altitude 18:54:41 40° 80° (E) 1,383 4.5 -22.0°
Enters shadow 18:55:49 37° 105° (ESE) 1,457 4.5 -22.1°
